Location: Bemmer
(51.5498°N, 5.6249°E)
Time: 15:37:54
(UTC+00:00)

Cosmos 1066 Rocket - Pass Details

Date: 03 March 2021
Orbit: 799 x 894 km, 81.2° (Epoch: 13 April)

Event Time Altitude Azimuth Distance (km) Brightness Sun altitude
Rises 19:34:14 0° 347° (NNW) 3,432 7.8 -21.2°
Reaches altitude 10° 19:36:39 10° 347° (NNW) 2,506 7.0 -21.6°
Maximum altitude 19:42:22 90° 256° (WSW) 881 4.2 -22.4°
Enters shadow 19:45:47 26° 169° (S) 1,659 5.4 -22.9°
